Regional Weather Roundup
Issued by NWS

Home | Current Version | Previous Version | Text Only | Print | Product List | Glossary On
Versions: 1 2 3 4 5 6 7 8 9 10 11 12 13 14 15 16 17 18 19 20 21 22 23 24 25 26 27 28 29 30 31 32 33 34 35 36 37 38 39 40 41 42 43 44 45 46 47 48 49 50
000
ASUS45 KCYS 180710
RWRWY

WYOMING REGIONAL WEATHER ROUNDUP
NATIONAL WEATHER SERVICE CHEYENNE WY
100 AM MDT THU SEP 18 2014

NOTE:  "FAIR" INDICATES FEW OR NO CLOUDS BELOW 12,000 FEET
WITH NO SIGNIFICANT WEATHER AND/OR OBSTRUCTIONS TO VISIBILITY.

WYZ001-180800-
YELLOWSTONE NATIONAL PARK

CITY           SKY/WX    TMP DP  RH WIND       PRES   REMARKS
LK YELLOWSTONE   N/A     41  36  82 NW3       30.19F
W YELLOWSTONE  NOT AVBL

$$
WYZ002>013-054>058-071-098>099-180800-
NORTHERN WYOMING

CITY           SKY/WX    TMP DP  RH WIND       PRES   REMARKS
JACKSON        CLEAR     48  41  76 N5        30.09F
CODY             N/A    N/A N/A N/A MISG        N/A
GREYBULL       CLEAR     58  49  72 N3        29.93S
WORLAND        CLEAR     56  47  71 S6        29.95S
SHERIDAN       PTCLDY    66  44  45 S5        29.91F
BUFFALO        PTCLDY    62  41  46 SW3       30.00S
GILLETTE       PTCLDY    63  48  58 S15       29.95F
HULETT         FAIR      61  48  63 MISG      29.96
NEWCASTLE      FAIR      59  45  58 CALM      29.97

$$
WYZ014>020-022>026-101>103-180800-
CENTRAL WYOMING

CITY           SKY/WX    TMP DP  RH WIND       PRES   REMARKS
BIG PINEY      PTCLDY    44  40  85 NE6       30.16F
PINEDALE       SUNNY     45  37  76 NW5       30.18S
DUBOIS         FAIR      46  37  71 NW8       30.17S
LANDER         CLEAR     57  38  48 CALM      30.04S
RIVERTON       CLEAR     56  38  50 CALM      30.05S
CASPER         PTCLDY    51  37  58 W3        30.04S
DOUGLAS        CLEAR     50  41  71 CALM      30.03R

$$
WYZ021-027>030-104>119-180800-
SOUTHERN WYOMING

CITY           SKY/WX    TMP DP  RH WIND       PRES   REMARKS
EVANSTON       PTCLDY    60  38  43 S7        30.14F
KEMMERER       MOSUNNY   52  37  58 N8        30.16F
FORT BRIDGER   FAIR      59  39  47 E6        30.17S
ROCK SPRINGS   CLEAR     61  34  36 SE5       30.14S
DIXON          FAIR      57  41  53 CALM      30.17S
RAWLINS        CLEAR     52  37  56 N6        30.16R
SARATOGA       FAIR      48  39  71 CALM      30.18F
LARAMIE        CLEAR     45  37  73 SW9       30.19F
CHEYENNE       CLEAR     54  42  64 W7        30.11F
TORRINGTON     CLEAR     54  46  74 NE3       29.96F
PINE BLUFFS    FAIR      48  43  81 W6        30.06F

$$


USA.gov is the U.S. government's official web portal to all federal, state and local government web resources and services.